Hourly Weather Roundup
Issued by NWS Central Illinois

Home | Current Version | Previous Version | Text Only | Print | Product List | Glossary On
Versions: 1 2 3 4 5 6 7 8 9 10 11 12 13 14 15 16 17 18 19 20 21 22 23 24 25 26 27 28 29 30 31 32 33 34 35 36 37 38 39 40 41 42 43 44 45 46 47 48 49 50
000
NZUS43 KILX 282310
HWRILX

AREA WEATHER ROUNDUP
NATIONAL WEATHER SERVICE, LINCOLN IL
500 PM CST WED JAN 28 2015


CITY           SKY/WX    TMP DP  RH WIND       PRES   REMARKS
BLOOMINGTON    PTCLDY    35  30  82 S20G26    29.99F WCI  24
CHAMPAIGN      PTCLDY    35  27  72 SE18      30.05F WCI  24
DECATUR        PTCLDY    37  29  72 SE16      30.02F WCI  28
FLORA          PTCLDY    39  30  68 SE12      30.10F WCI  32
GALESBURG      CLOUDY    38  32  79 SE15G24   29.88F WCI  29
JACKSONVILLE   MOCLDY    43  33  67 SE16G22   29.94F
LACON          MOCLDY    36  29  76 S15G24    29.95F WCI  26
LAWRENCEVILLE  PTCLDY    38  26  62 SE10      30.15  WCI  31
LITCHFIELD     PTCLDY    40  30  68 SE16G22   29.99F WCI  31
$$


CITY           SKY/WX    TMP DP  RH WIND       PRES   REMARKS
LINCOLN        PTCLDY    39  32  75 SE16G24   29.99F WCI  30
MACOMB         MOCLDY    39  33  79 SE17      29.90F WCI  30
MATTOON        CLEAR     36  25  64 SE16      30.05F WCI  26
MT CARMEL AP   PTCLDY    41  25  52 SE10      30.14S WCI  35
OLNEY-NOBLE AP CLEAR     37  28  70 CALM      30.12S
PARIS          PTCLDY    34  25  69 SE14      30.11F WCI  25
PEORIA         MOCLDY    39  30  70 S20G29    29.94F WCI  29
PONTIAC        PTCLDY    35  30  83 SE17G25   30.01F WCI  24
RANTOUL        PTCLDY    36  27  70 SE15G22   30.05F WCI  26
ROBINSON       PTCLDY    37  24  58 SE9       30.14F WCI  30
SPRINGFIELD    PTCLDY    40  31  70 SE20G26   29.97F WCI  30
TAYLORVILLE    PTCLDY    37  32  81 SE13G22   29.99F WCI  29
$$

...REGIONAL REPORTS...


CITY           SKY/WX    TMP DP  RH WIND       PRES   REMARKS
CHICAGO O`HARE CLOUDY    32  22  66 SE20      30.02F WCI  20
KANKAKEE       MOCLDY    33  26  75 SE13      30.06F WCI  24
MOLINE         MOCLDY    36  29  75 SE10      29.87F WCI  28
MOUNT VERNON   CLEAR     45  30  57 SE9       30.09F
PITTSFIELD     CLOUDY    44  34  67 SE12      29.90F
QUINCY         CLOUDY    44  31  60 S17G23    29.85F
ROCKFORD       CLOUDY    33  24  69 SE17G31   29.97F WCI  22
$$


CITY           SKY/WX    TMP DP  RH WIND       PRES   REMARKS
BURLINGTON     MOCLDY    41  32  70 SE13      29.84F WCI  34
CEDAR RAPIDS   CLOUDY    36  31  82 SE17      29.77F WCI  26
DES MOINES     CLOUDY    51  37  58 SE5       29.70S
KIRKSVILLE     MOCLDY    50  39  66 SE16      29.74F
OTTUMWA        CLOUDY    44  34  67 SE16      29.73F
ST LOUIS       MOCLDY    49  31  49 SE20G26   29.97F
$$


CITY           SKY/WX    TMP DP  RH WIND       PRES   REMARKS
TERRE HAUTE    MOCLDY    36  20  52 SE10      30.14F WCI  28
EVANSVILLE     PTCLDY    42  23  46 SE7       30.17S
INDIANAPOLIS   MOCLDY    31  17  56 SE10      30.15F WCI  22
LAFAYETTE      MOCLDY    34  19  54 SE8       30.12F WCI  27
MADISON        CLOUDY    31  21  66 SE17      29.91F WCI  19
MILWAUKEE      MOCLDY    32  20  61 S20       30.01F WCI  20
$$




USA.gov is the U.S. government's official web portal to all federal, state and local government web resources and services.